| time (UTC) | temp F | wind direction | speed knots | gust knots | rain 1hr in | rain 24hr in | rain mn in | humidity % | barometer mb |
| 20260505111524 | 0 | 0.0 | 0.0 | 0.00 | 0.00 | 0.00 | 1008.3 | ||
| 20260505101503 | 73 | 154 | 4.3 | 6.1 | 0.00 | 0.00 | 0.00 | 91 | 1008.1 |
| 20260505100059 | 73 | 196 | 4.3 | 7.8 | 0.00 | 0.00 | 0.00 | 91 | 1008.1 |
| 20260505094553 | 74 | 197 | 4.3 | 7.0 | 0.00 | 0.00 | 0.00 | 91 | 1008.3 |
| 20260505093056 | 74 | 195 | 4.3 | 8.7 | 0.00 | 0.00 | 0.00 | 91 | 1008.5 |
| 20260505091551 | 74 | 166 | 5.2 | 9.6 | 0.00 | 0.00 | 0.00 | 91 | 1008.5 |
| 20260505090039 | 74 | 188 | 5.2 | 9.6 | 0.00 | 0.00 | 0.00 | 90 | 1008.6 |
| 20260505084533 | 74 | 167 | 6.1 | 9.6 | 0.00 | 0.00 | 0.00 | 90 | 1008.4 |
| 20260505083025 | 74 | 166 | 4.3 | 8.7 | 0.00 | 0.00 | 0.00 | 90 | 1008.5 |
| 20260505081522 | 74 | 217 | 5.2 | 10.4 | 0.00 | 0.00 | 0.00 | 89 | 1008.6 |
| 20260505080017 | 74 | 156 | 6.1 | 8.7 | 0.00 | 0.00 | 0.00 | 89 | 1008.8 |
| 20260505074512 | 73 | 171 | 5.2 | 11.3 | 0.00 | 0.00 | 0.00 | 89 | 1008.8 |
| 20260505073005 | 73 | 203 | 4.3 | 10.4 | 0.00 | 0.00 | 0.00 | 89 | 1008.9 |
| 20260505071510 | 73 | 185 | 5.2 | 9.6 | 0.00 | 0.00 | 0.00 | 89 | 1009.0 |
| 20260505070001 | 73 | 178 | 6.1 | 9.6 | 0.00 | 0.00 | 0.00 | 89 | 1009.2 |
| 20260505064558 | 73 | 167 | 5.2 | 8.7 | 0.00 | 0.00 | 0.00 | 89 | 1009.5 |
| 20260505063027 | 73 | 173 | 3.5 | 7.0 | 0.00 | 0.00 | 0.00 | 89 | 1009.8 |
| 20260505061525 | 72 | 160 | 3.5 | 7.8 | 0.00 | 0.00 | 0.00 | 89 | 1009.9 |
| 20260505060037 | 72 | 198 | 4.3 | 8.7 | 0.00 | 0.00 | 0.00 | 88 | 1009.9 |
| 20260505054522 | 73 | 165 | 4.3 | 9.6 | 0.00 | 0.00 | 0.00 | 88 | 1010.0 |
| 20260505053024 | 73 | 155 | 4.3 | 7.8 | 0.00 | 0.00 | 0.00 | 87 | 1009.9 |
| 20260505051525 | 73 | 160 | 6.1 | 10.4 | 0.00 | 0.00 | 0.00 | 87 | 1010.1 |
| 20260505041540 | 72 | 175 | 2.6 | 5.2 | 0.00 | 0.00 | 0.00 | 87 | 1010.5 |
| 20260505040041 | 72 | 170 | 2.6 | 6.1 | 0.00 | 0.00 | 0.00 | 87 | 1010.6 |
| 20260505034540 | 72 | 163 | 2.6 | 7.0 | 0.00 | 0.00 | 0.00 | 86 | 1010.8 |
| 20260505033036 | 72 | 144 | 3.5 | 7.0 | 0.00 | 0.00 | 0.00 | 86 | 1010.7 |
| 20260505031532 | 72 | 161 | 4.3 | 7.0 | 0.00 | 0.00 | 0.00 | 85 | 1010.7 |
| 20260505030032 | 73 | 165 | 4.3 | 6.1 | 0.00 | 0.00 | 0.00 | 85 | 1010.7 |
| 20260505024528 | 73 | 160 | 4.3 | 7.0 | 0.00 | 0.00 | 0.00 | 85 | 1010.7 |
| 20260505023026 | 73 | 157 | 4.3 | 7.8 | 0.00 | 0.00 | 0.00 | 84 | 1010.7 |
| 20260505021528 | 73 | 158 | 4.3 | 7.0 | 0.00 | 0.00 | 0.00 | 84 | 1010.6 |
| 20260505020021 | 73 | 160 | 3.5 | 7.8 | 0.00 | 0.00 | 0.00 | 84 | 1010.6 |
| 20260505014516 | 73 | 158 | 5.2 | 8.7 | 0.00 | 0.00 | 0.00 | 83 | 1010.4 |
| 20260505013013 | 73 | 146 | 5.2 | 7.8 | 0.00 | 0.00 | 0.00 | 82 | 1010.4 |
| 20260505011513 | 74 | 163 | 4.3 | 7.8 | 0.00 | 0.00 | 0.00 | 83 | 1010.4 |
| 20260505010011 | 74 | 163 | 5.2 | 12.2 | 0.00 | 0.00 | 0.00 | 82 | 1010.2 |
| 20260505004519 | 74 | 159 | 8.7 | 13.0 | 0.00 | 0.00 | 0.00 | 81 | 1010.1 |
| 20260505003010 | 74 | 154 | 8.7 | 13.9 | 0.00 | 0.00 | 0.00 | 80 | 1010.2 |
| 20260505001540 | 75 | 150 | 8.7 | 13.9 | 0.00 | 0.00 | 0.00 | 80 | 1010.1 |
| 20260505000051 | 75 | 164 | 9.6 | 13.9 | 0.00 | 0.00 | 0.00 | 79 | 1010.3 |
| 20260504234535 | 75 | 146 | 7.8 | 13.0 | 0.00 | 0.00 | 0.00 | 80 | 1010.3 |
| 20260504233036 | 75 | 160 | 8.7 | 13.9 | 0.00 | 0.00 | 0.00 | 79 | 1010.5 |
| 20260504231531 | 75 | 153 | 9.6 | 12.2 | 0.00 | 0.00 | 0.00 | 79 | 1010.7 |
| 20260504230030 | 75 | 149 | 7.0 | 12.2 | 0.00 | 0.00 | 0.00 | 79 | 1010.9 |
| 20260504224527 | 75 | 148 | 8.7 | 13.9 | 0.00 | 0.00 | 0.00 | 79 | 1010.8 |
| 20260504223024 | 75 | 165 | 8.7 | 13.0 | 0.00 | 0.00 | 0.00 | 78 | 1011.2 |
| 20260504221523 | 75 | 145 | 7.8 | 14.8 | 0.00 | 0.00 | 0.00 | 78 | 1011.3 |
| 20260504220037 | 76 | 162 | 8.7 | 14.8 | 0.00 | 0.00 | 0.00 | 77 | 1011.4 |
| 20260504214525 | 76 | 122 | 8.7 | 13.0 | 0.00 | 0.00 | 0.00 | 78 | 1011.5 |
| 20260504213018 | 76 | 137 | 7.8 | 13.0 | 0.00 | 0.00 | 0.00 | 75 | 1011.6 |
| 20260504211525 | 76 | 165 | 7.8 | 13.0 | 0.00 | 0.00 | 0.00 | 77 | 1011.7 |
| 20260504210016 | 76 | 229 | 6.1 | 13.0 | 0.00 | 0.00 | 0.00 | 76 | 1011.9 |
| 20260504204544 | 76 | 174 | 7.8 | 12.2 | 0.00 | 0.00 | 0.00 | 77 | 1012.1 |
| 20260504203043 | 76 | 120 | 7.0 | 13.9 | 0.00 | 0.00 | 0.00 | 75 | 1012.2 |
| 20260504201550 | 76 | 161 | 7.8 | 13.0 | 0.00 | 0.00 | 0.00 | 75 | 1012.5 |
| 20260504200038 | 77 | 134 | 6.1 | 13.9 | 0.00 | 0.00 | 0.00 | 73 | 1012.6 |
| 20260504194537 | 77 | 165 | 7.8 | 11.3 | 0.00 | 0.00 | 0.00 | 73 | 1012.6 |
| 20260504193033 | 77 | 179 | 6.1 | 13.0 | 0.00 | 0.00 | 0.00 | 73 | 1013.1 |
| 20260504191503 | 77 | 213 | 7.8 | 13.9 | 0.00 | 0.00 | 0.00 | 72 | 1013.2 |
| 20260504190002 | 77 | 176 | 7.8 | 13.9 | 0.00 | 0.00 | 0.00 | 72 | 1013.3 |
| 20260504184534 | 77 | 171 | 7.0 | 13.9 | 0.00 | 0.00 | 0.00 | 69 | 1013.2 |
| 20260504183028 | 77 | 186 | 4.3 | 12.2 | 0.00 | 0.00 | 0.00 | 71 | 1013.3 |
| 20260504181531 | 76 | 171 | 7.8 | 12.2 | 0.00 | 0.00 | 0.00 | 73 | 1013.9 |
| 20260504180023 | 76 | 143 | 7.8 | 13.9 | 0.00 | 0.00 | 0.00 | 71 | 1014.0 |
| 20260504174520 | 76 | 163 | 7.0 | 14.8 | 0.00 | 0.00 | 0.00 | 73 | 1014.0 |
| 20260504173019 | 76 | 154 | 7.0 | 13.9 | 0.00 | 0.00 | 0.00 | 72 | 1014.4 |
| 20260504171547 | 76 | 169 | 7.0 | 13.0 | 0.00 | 0.00 | 0.00 | 71 | 1014.4 |